owner,sensor,date,latitude,longitude,air_pressure(mBar),qcFlag 
COMPS,ioos:station:USF.COMPS:FHP:1,2019-08-01T00:54:00,28.1530,-82.8010,1018.4,11111222 
COMPS,ioos:station:USF.COMPS:FHP:1,2019-08-01T01:54:00,28.1530,-82.8010,1017.36,11111222 
COMPS,ioos:station:USF.COMPS:FHP:1,2019-08-01T02:54:00,28.1530,-82.8010,1016.4,11111222 
COMPS,ioos:station:USF.COMPS:FHP:1,2019-08-01T03:54:00,28.1530,-82.8010,1016.38,11111222 
COMPS,ioos:station:USF.COMPS:FHP:1,2019-08-01T04:54:00,28.1530,-82.8010,1017.0,11111222 
COMPS,ioos:station:USF.COMPS:FHP:1,2019-08-01T05:54:00,28.1530,-82.8010,1015.96,11111222 
COMPS,ioos:station:USF.COMPS:FHP:1,2019-08-01T06:54:00,28.1530,-82.8010,1016.38,11111222 
COMPS,ioos:station:USF.COMPS:FHP:1,2019-08-01T07:54:00,28.1530,-82.8010,1016.36,11111222 
COMPS,ioos:station:USF.COMPS:FHP:1,2019-08-01T08:54:00,28.1530,-82.8010,1016.45,11111222 
COMPS,ioos:station:USF.COMPS:FHP:1,2019-08-01T09:54:00,28.1530,-82.8010,1016.56,11111222 
COMPS,ioos:station:USF.COMPS:FHP:1,2019-08-01T10:54:00,28.1530,-82.8010,1016.53,11111222 
COMPS,ioos:station:USF.COMPS:FHP:1,2019-08-01T11:54:00,28.1530,-82.8010,1017.21,11111222 
COMPS,ioos:station:USF.COMPS:FHP:1,2019-08-01T12:54:00,28.1530,-82.8010,1017.57,11111222 
COMPS,ioos:station:USF.COMPS:FHP:1,2019-08-01T13:54:00,28.1530,-82.8010,1017.44,11111222 
COMPS,ioos:station:USF.COMPS:FHP:1,2019-08-01T14:54:00,28.1530,-82.8010,1017.62,11111222 
COMPS,ioos:station:USF.COMPS:FHP:1,2019-08-01T15:54:00,28.1530,-82.8010,1017.61,11111222 
COMPS,ioos:station:USF.COMPS:FHP:1,2019-08-01T16:54:00,28.1530,-82.8010,1017.38,11111222 
COMPS,ioos:station:USF.COMPS:FHP:1,2019-08-01T17:54:00,28.1530,-82.8010,1016.96,11111222 
COMPS,ioos:station:USF.COMPS:FHP:1,2019-08-01T18:54:00,28.1530,-82.8010,1015.96,11111222 
COMPS,ioos:station:USF.COMPS:FHP:1,2019-08-01T19:54:00,28.1530,-82.8010,1015.96,11111222 
COMPS,ioos:station:USF.COMPS:FHP:1,2019-08-01T20:54:00,28.1530,-82.8010,1017.13,11111222 
COMPS,ioos:station:USF.COMPS:FHP:1,2019-08-01T21:54:00,28.1530,-82.8010,1016.77,11111222 
COMPS,ioos:station:USF.COMPS:FHP:1,2019-08-01T22:54:00,28.1530,-82.8010,1015.6,11111222 
COMPS,ioos:station:USF.COMPS:FHP:1,2019-08-01T23:54:00,28.1530,-82.8010,1015.68,11111222 
COMPS,ioos:station:USF.COMPS:FHP:1,2019-08-02T00:54:00,28.1530,-82.8010,1015.53,11111222 
COMPS,ioos:station:USF.COMPS:FHP:1,2019-08-02T01:54:00,28.1530,-82.8010,1015.62,11111222 
COMPS,ioos:station:USF.COMPS:FHP:1,2019-08-02T02:54:00,28.1530,-82.8010,1015.56,11111222 
COMPS,ioos:station:USF.COMPS:FHP:1,2019-08-02T03:54:00,28.1530,-82.8010,1015.7,11111222 
COMPS,ioos:station:USF.COMPS:FHP:1,2019-08-02T04:54:00,28.1530,-82.8010,1015.4,11111222 
COMPS,ioos:station:USF.COMPS:FHP:1,2019-08-02T05:54:00,28.1530,-82.8010,1015.1,11111222 
COMPS,ioos:station:USF.COMPS:FHP:1,2019-08-02T06:54:00,28.1530,-82.8010,1014.68,11111222 
COMPS,ioos:station:USF.COMPS:FHP:1,2019-08-02T07:54:00,28.1530,-82.8010,1015.05,11111222 
COMPS,ioos:station:USF.COMPS:FHP:1,2019-08-02T08:54:00,28.1530,-82.8010,1014.88,11111222 
COMPS,ioos:station:USF.COMPS:FHP:1,2019-08-02T09:54:00,28.1530,-82.8010,1014.81,11111222 
COMPS,ioos:station:USF.COMPS:FHP:1,2019-08-02T10:54:00,28.1530,-82.8010,1014.9,11111222 
COMPS,ioos:station:USF.COMPS:FHP:1,2019-08-02T11:54:00,28.1530,-82.8010,1014.81,11111222 
COMPS,ioos:station:USF.COMPS:FHP:1,2019-08-02T12:54:00,28.1530,-82.8010,1014.93,11111222 
COMPS,ioos:station:USF.COMPS:FHP:1,2019-08-02T13:54:00,28.1530,-82.8010,1014.92,11111222 
COMPS,ioos:station:USF.COMPS:FHP:1,2019-08-02T14:54:00,28.1530,-82.8010,1014.96,11111222 
COMPS,ioos:station:USF.COMPS:FHP:1,2019-08-02T15:54:00,28.1530,-82.8010,1014.86,11111222 
COMPS,ioos:station:USF.COMPS:FHP:1,2019-08-02T16:54:00,28.1530,-82.8010,1014.53,11111222 
COMPS,ioos:station:USF.COMPS:FHP:1,2019-08-02T17:54:00,28.1530,-82.8010,1014.02,11111222 
COMPS,ioos:station:USF.COMPS:FHP:1,2019-08-02T18:54:00,28.1530,-82.8010,1013.13,11111222 
COMPS,ioos:station:USF.COMPS:FHP:1,2019-08-02T19:54:00,28.1530,-82.8010,1012.41,11111222 
COMPS,ioos:station:USF.COMPS:FHP:1,2019-08-02T20:54:00,28.1530,-82.8010,1012.38,11111222 
COMPS,ioos:station:USF.COMPS:FHP:1,2019-08-02T21:54:00,28.1530,-82.8010,1012.34,11111222 
COMPS,ioos:station:USF.COMPS:FHP:1,2019-08-02T22:54:00,28.1530,-82.8010,1012.93,11111222 
COMPS,ioos:station:USF.COMPS:FHP:1,2019-08-02T23:54:00,28.1530,-82.8010,1013.0,11111222 
COMPS,ioos:station:USF.COMPS:FHP:1,2019-08-03T00:54:00,28.1530,-82.8010,1013.05,11111222 
COMPS,ioos:station:USF.COMPS:FHP:1,2019-08-03T01:54:00,28.1530,-82.8010,1013.7,11111222 
COMPS,ioos:station:USF.COMPS:FHP:1,2019-08-03T02:54:00,28.1530,-82.8010,1013.8,11111222 
COMPS,ioos:station:USF.COMPS:FHP:1,2019-08-03T03:54:00,28.1530,-82.8010,1013.98,11111222 
COMPS,ioos:station:USF.COMPS:FHP:1,2019-08-03T04:54:00,28.1530,-82.8010,1013.69,11111222 
COMPS,ioos:station:USF.COMPS:FHP:1,2019-08-03T05:54:00,28.1530,-82.8010,1013.45,11111222 
COMPS,ioos:station:USF.COMPS:FHP:1,2019-08-03T06:54:00,28.1530,-82.8010,1013.14,11111222 
COMPS,ioos:station:USF.COMPS:FHP:1,2019-08-03T07:54:00,28.1530,-82.8010,1012.9,11111222 
COMPS,ioos:station:USF.COMPS:FHP:1,2019-08-03T08:54:00,28.1530,-82.8010,1012.96,11111222 
COMPS,ioos:station:USF.COMPS:FHP:1,2019-08-03T09:54:00,28.1530,-82.8010,1013.09,11111222 
COMPS,ioos:station:USF.COMPS:FHP:1,2019-08-03T10:54:00,28.1530,-82.8010,1013.54,11111222 
COMPS,ioos:station:USF.COMPS:FHP:1,2019-08-03T11:54:00,28.1530,-82.8010,1013.68,11111222 
COMPS,ioos:station:USF.COMPS:FHP:1,2019-08-03T12:54:00,28.1530,-82.8010,1014.34,11111222 
COMPS,ioos:station:USF.COMPS:FHP:1,2019-08-03T13:54:00,28.1530,-82.8010,1014.7,11111222 
COMPS,ioos:station:USF.COMPS:FHP:1,2019-08-03T14:54:00,28.1530,-82.8010,1015.24,11111222 
COMPS,ioos:station:USF.COMPS:FHP:1,2019-08-03T15:54:00,28.1530,-82.8010,1014.97,11111222 
COMPS,ioos:station:USF.COMPS:FHP:1,2019-08-03T16:54:00,28.1530,-82.8010,1014.41,11111222 
COMPS,ioos:station:USF.COMPS:FHP:1,2019-08-03T17:54:00,28.1530,-82.8010,1014.04,11111222 
COMPS,ioos:station:USF.COMPS:FHP:1,2019-08-03T18:54:00,28.1530,-82.8010,1013.69,11111222 
COMPS,ioos:station:USF.COMPS:FHP:1,2019-08-03T19:54:00,28.1530,-82.8010,1012.92,11111222 
COMPS,ioos:station:USF.COMPS:FHP:1,2019-08-03T20:54:00,28.1530,-82.8010,1012.82,11111222 
COMPS,ioos:station:USF.COMPS:FHP:1,2019-08-03T21:54:00,28.1530,-82.8010,1012.62,11111222 
COMPS,ioos:station:USF.COMPS:FHP:1,2019-08-03T22:54:00,28.1530,-82.8010,1012.72,11111222 
COMPS,ioos:station:USF.COMPS:FHP:1,2019-08-03T23:54:00,28.1530,-82.8010,1013.16,11111222 
COMPS,ioos:station:USF.COMPS:FHP:1,2019-08-04T00:54:00,28.1530,-82.8010,1013.7,11111222 
COMPS,ioos:station:USF.COMPS:FHP:1,2019-08-04T01:54:00,28.1530,-82.8010,1014.16,11111222 
COMPS,ioos:station:USF.COMPS:FHP:1,2019-08-04T02:54:00,28.1530,-82.8010,1014.73,11111222 
COMPS,ioos:station:USF.COMPS:FHP:1,2019-08-04T03:54:00,28.1530,-82.8010,1015.06,11111222 
COMPS,ioos:station:USF.COMPS:FHP:1,2019-08-04T04:54:00,28.1530,-82.8010,1015.04,11111222 
COMPS,ioos:station:USF.COMPS:FHP:1,2019-08-04T05:54:00,28.1530,-82.8010,1014.85,11111222 
COMPS,ioos:station:USF.COMPS:FHP:1,2019-08-04T06:54:00,28.1530,-82.8010,1014.49,11111222 
COMPS,ioos:station:USF.COMPS:FHP:1,2019-08-04T07:54:00,28.1530,-82.8010,1014.17,11111222 
COMPS,ioos:station:USF.COMPS:FHP:1,2019-08-04T08:54:00,28.1530,-82.8010,1014.22,11111222 
COMPS,ioos:station:USF.COMPS:FHP:1,2019-08-04T09:54:00,28.1530,-82.8010,1014.38,11111222 
COMPS,ioos:station:USF.COMPS:FHP:1,2019-08-04T10:54:00,28.1530,-82.8010,1014.89,11111222 
COMPS,ioos:station:USF.COMPS:FHP:1,2019-08-04T11:54:00,28.1530,-82.8010,1015.44,11111222 
COMPS,ioos:station:USF.COMPS:FHP:1,2019-08-04T12:54:00,28.1530,-82.8010,1016.1,11111222 
COMPS,ioos:station:USF.COMPS:FHP:1,2019-08-04T13:54:00,28.1530,-82.8010,1016.32,11111222 
COMPS,ioos:station:USF.COMPS:FHP:1,2019-08-04T14:54:00,28.1530,-82.8010,1016.6,11111222 
COMPS,ioos:station:USF.COMPS:FHP:1,2019-08-04T15:54:00,28.1530,-82.8010,1016.48,11111222 
COMPS,ioos:station:USF.COMPS:FHP:1,2019-08-04T16:54:00,28.1530,-82.8010,1016.18,11111222 
COMPS,ioos:station:USF.COMPS:FHP:1,2019-08-04T17:54:00,28.1530,-82.8010,1016.05,11111222 
COMPS,ioos:station:USF.COMPS:FHP:1,2019-08-04T18:54:00,28.1530,-82.8010,1015.45,11111222 
COMPS,ioos:station:USF.COMPS:FHP:1,2019-08-04T19:54:00,28.1530,-82.8010,1014.92,11111222 
COMPS,ioos:station:USF.COMPS:FHP:1,2019-08-04T20:54:00,28.1530,-82.8010,1014.42,11111222 
COMPS,ioos:station:USF.COMPS:FHP:1,2019-08-04T21:54:00,28.1530,-82.8010,1014.18,11111222 
COMPS,ioos:station:USF.COMPS:FHP:1,2019-08-04T22:54:00,28.1530,-82.8010,1014.42,11111222 
COMPS,ioos:station:USF.COMPS:FHP:1,2019-08-04T23:54:00,28.1530,-82.8010,1014.37,11111222 
COMPS,ioos:station:USF.COMPS:FHP:1,2019-08-05T00:54:00,28.1530,-82.8010,1014.7,11111222 
COMPS,ioos:station:USF.COMPS:FHP:1,2019-08-05T01:54:00,28.1530,-82.8010,1015.58,11111222 
COMPS,ioos:station:USF.COMPS:FHP:1,2019-08-05T02:54:00,28.1530,-82.8010,1016.0,11111222 
COMPS,ioos:station:USF.COMPS:FHP:1,2019-08-05T03:54:00,28.1530,-82.8010,1015.78,11111222 
COMPS,ioos:station:USF.COMPS:FHP:1,2019-08-05T04:54:00,28.1530,-82.8010,1015.42,11111222 
COMPS,ioos:station:USF.COMPS:FHP:1,2019-08-05T05:54:00,28.1530,-82.8010,1015.01,11111222 
COMPS,ioos:station:USF.COMPS:FHP:1,2019-08-05T06:54:00,28.1530,-82.8010,1014.94,11111222 
COMPS,ioos:station:USF.COMPS:FHP:1,2019-08-05T07:54:00,28.1530,-82.8010,1014.72,11111222 
COMPS,ioos:station:USF.COMPS:FHP:1,2019-08-05T08:54:00,28.1530,-82.8010,1014.45,11111222 
COMPS,ioos:station:USF.COMPS:FHP:1,2019-08-05T09:54:00,28.1530,-82.8010,1015.01,11111222 
COMPS,ioos:station:USF.COMPS:FHP:1,2019-08-05T10:54:00,28.1530,-82.8010,1015.22,11111222 
COMPS,ioos:station:USF.COMPS:FHP:1,2019-08-05T11:54:00,28.1530,-82.8010,1016.08,11111222 
COMPS,ioos:station:USF.COMPS:FHP:1,2019-08-05T12:54:00,28.1530,-82.8010,1016.53,11111222 
COMPS,ioos:station:USF.COMPS:FHP:1,2019-08-05T13:54:00,28.1530,-82.8010,1016.9,11111222 
COMPS,ioos:station:USF.COMPS:FHP:1,2019-08-05T14:54:00,28.1530,-82.8010,1016.54,11111222 
COMPS,ioos:station:USF.COMPS:FHP:1,2019-08-05T15:54:00,28.1530,-82.8010,1016.46,11111222 
COMPS,ioos:station:USF.COMPS:FHP:1,2019-08-05T16:54:00,28.1530,-82.8010,1016.52,11111222 
COMPS,ioos:station:USF.COMPS:FHP:1,2019-08-05T17:54:00,28.1530,-82.8010,1016.28,11111222 
COMPS,ioos:station:USF.COMPS:FHP:1,2019-08-05T18:54:00,28.1530,-82.8010,1015.77,11111222 
COMPS,ioos:station:USF.COMPS:FHP:1,2019-08-05T19:54:00,28.1530,-82.8010,1015.49,11111222 
COMPS,ioos:station:USF.COMPS:FHP:1,2019-08-05T20:54:00,28.1530,-82.8010,1015.21,11111222 
COMPS,ioos:station:USF.COMPS:FHP:1,2019-08-05T21:54:00,28.1530,-82.8010,1015.12,11111222 
COMPS,ioos:station:USF.COMPS:FHP:1,2019-08-05T22:54:00,28.1530,-82.8010,1015.53,11111222 
COMPS,ioos:station:USF.COMPS:FHP:1,2019-08-05T23:54:00,28.1530,-82.8010,1015.44,11111222 
COMPS,ioos:station:USF.COMPS:FHP:1,2019-08-06T00:54:00,28.1530,-82.8010,1015.72,11111222 
COMPS,ioos:station:USF.COMPS:FHP:1,2019-08-06T01:54:00,28.1530,-82.8010,1016.1,11111222 
COMPS,ioos:station:USF.COMPS:FHP:1,2019-08-06T02:54:00,28.1530,-82.8010,1016.14,11111222 
COMPS,ioos:station:USF.COMPS:FHP:1,2019-08-06T03:54:00,28.1530,-82.8010,1016.22,11111222 
COMPS,ioos:station:USF.COMPS:FHP:1,2019-08-06T04:54:00,28.1530,-82.8010,1016.01,11111222 
COMPS,ioos:station:USF.COMPS:FHP:1,2019-08-06T05:54:00,28.1530,-82.8010,1015.37,11111222 
COMPS,ioos:station:USF.COMPS:FHP:1,2019-08-06T06:54:00,28.1530,-82.8010,1015.01,11111222 
COMPS,ioos:station:USF.COMPS:FHP:1,2019-08-06T07:54:00,28.1530,-82.8010,1014.8,11111222 
COMPS,ioos:station:USF.COMPS:FHP:1,2019-08-06T08:54:00,28.1530,-82.8010,1015.01,11111222 
COMPS,ioos:station:USF.COMPS:FHP:1,2019-08-06T09:54:00,28.1530,-82.8010,1014.92,11111222 
COMPS,ioos:station:USF.COMPS:FHP:1,2019-08-06T10:54:00,28.1530,-82.8010,1015.56,11111222 
COMPS,ioos:station:USF.COMPS:FHP:1,2019-08-06T11:54:00,28.1530,-82.8010,1015.73,11111222 
COMPS,ioos:station:USF.COMPS:FHP:1,2019-08-06T12:54:00,28.1530,-82.8010,1016.12,11111222 
COMPS,ioos:station:USF.COMPS:FHP:1,2019-08-06T13:54:00,28.1530,-82.8010,1016.18,11111222 
COMPS,ioos:station:USF.COMPS:FHP:1,2019-08-06T14:54:00,28.1530,-82.8010,1016.16,11111222 
COMPS,ioos:station:USF.COMPS:FHP:1,2019-08-06T15:54:00,28.1530,-82.8010,1016.45,11111222 
COMPS,ioos:station:USF.COMPS:FHP:1,2019-08-06T16:54:00,28.1530,-82.8010,1016.1,11111222 
COMPS,ioos:station:USF.COMPS:FHP:1,2019-08-06T17:54:00,28.1530,-82.8010,1015.26,11111222 
COMPS,ioos:station:USF.COMPS:FHP:1,2019-08-06T18:54:00,28.1530,-82.8010,1014.8,11111222 
COMPS,ioos:station:USF.COMPS:FHP:1,2019-08-06T19:54:00,28.1530,-82.8010,1014.54,11111222 
COMPS,ioos:station:USF.COMPS:FHP:1,2019-08-06T20:54:00,28.1530,-82.8010,1014.13,11111222 
COMPS,ioos:station:USF.COMPS:FHP:1,2019-08-06T21:54:00,28.1530,-82.8010,1014.38,11111222 
COMPS,ioos:station:USF.COMPS:FHP:1,2019-08-06T22:54:00,28.1530,-82.8010,1014.72,11111222 
COMPS,ioos:station:USF.COMPS:FHP:1,2019-08-06T23:54:00,28.1530,-82.8010,1014.92,11111222 
COMPS,ioos:station:USF.COMPS:FHP:1,2019-08-07T00:54:00,28.1530,-82.8010,1014.89,11111222 
COMPS,ioos:station:USF.COMPS:FHP:1,2019-08-07T01:54:00,28.1530,-82.8010,1015.28,11111222 
COMPS,ioos:station:USF.COMPS:FHP:1,2019-08-07T02:54:00,28.1530,-82.8010,1015.14,11111222 
COMPS,ioos:station:USF.COMPS:FHP:1,2019-08-07T03:54:00,28.1530,-82.8010,1015.12,11111222 
COMPS,ioos:station:USF.COMPS:FHP:1,2019-08-07T04:54:00,28.1530,-82.8010,1015.14,11111222 
COMPS,ioos:station:USF.COMPS:FHP:1,2019-08-07T05:54:00,28.1530,-82.8010,1015.14,11111222 
COMPS,ioos:station:USF.COMPS:FHP:1,2019-08-07T06:54:00,28.1530,-82.8010,1014.73,11111222 
COMPS,ioos:station:USF.COMPS:FHP:1,2019-08-07T07:54:00,28.1530,-82.8010,1014.72,11111222 
COMPS,ioos:station:USF.COMPS:FHP:1,2019-08-07T08:54:00,28.1530,-82.8010,1014.62,11111222 
COMPS,ioos:station:USF.COMPS:FHP:1,2019-08-07T09:54:00,28.1530,-82.8010,1014.81,11111222 
COMPS,ioos:station:USF.COMPS:FHP:1,2019-08-07T10:54:00,28.1530,-82.8010,1015.13,11111222 
COMPS,ioos:station:USF.COMPS:FHP:1,2019-08-07T11:54:00,28.1530,-82.8010,1015.58,11111222 
COMPS,ioos:station:USF.COMPS:FHP:1,2019-08-07T12:54:00,28.1530,-82.8010,1016.16,11111222 
COMPS,ioos:station:USF.COMPS:FHP:1,2019-08-07T13:54:00,28.1530,-82.8010,1016.28,11111222 
COMPS,ioos:station:USF.COMPS:FHP:1,2019-08-07T14:54:00,28.1530,-82.8010,1016.28,11111222 
COMPS,ioos:station:USF.COMPS:FHP:1,2019-08-07T15:54:00,28.1530,-82.8010,1016.18,11111222 
COMPS,ioos:station:USF.COMPS:FHP:1,2019-08-07T16:54:00,28.1530,-82.8010,1016.04,11111222 
COMPS,ioos:station:USF.COMPS:FHP:1,2019-08-07T17:54:00,28.1530,-82.8010,1015.3,11111222 
COMPS,ioos:station:USF.COMPS:FHP:1,2019-08-07T18:54:00,28.1530,-82.8010,1015.25,11111222 
COMPS,ioos:station:USF.COMPS:FHP:1,2019-08-07T19:54:00,28.1530,-82.8010,1014.65,11111222 
COMPS,ioos:station:USF.COMPS:FHP:1,2019-08-07T20:54:00,28.1530,-82.8010,1014.52,11111222 
COMPS,ioos:station:USF.COMPS:FHP:1,2019-08-07T21:54:00,28.1530,-82.8010,1014.64,11111222 
COMPS,ioos:station:USF.COMPS:FHP:1,2019-08-07T22:54:00,28.1530,-82.8010,1014.36,11111222 
COMPS,ioos:station:USF.COMPS:FHP:1,2019-08-07T23:54:00,28.1530,-82.8010,1014.92,11111222 
COMPS,ioos:station:USF.COMPS:FHP:1,2019-08-08T00:54:00,28.1530,-82.8010,1014.68,11111222 
COMPS,ioos:station:USF.COMPS:FHP:1,2019-08-08T01:54:00,28.1530,-82.8010,1015.1,11111222 
COMPS,ioos:station:USF.COMPS:FHP:1,2019-08-08T02:54:00,28.1530,-82.8010,1015.25,11111222 
COMPS,ioos:station:USF.COMPS:FHP:1,2019-08-08T05:54:00,28.1530,-82.8010,1015.2,11111222 
COMPS,ioos:station:USF.COMPS:FHP:1,2019-08-08T06:54:00,28.1530,-82.8010,1014.46,11111222 
COMPS,ioos:station:USF.COMPS:FHP:1,2019-08-08T07:54:00,28.1530,-82.8010,1014.32,11111222 
COMPS,ioos:station:USF.COMPS:FHP:1,2019-08-08T08:54:00,28.1530,-82.8010,1014.38,11111222 
COMPS,ioos:station:USF.COMPS:FHP:1,2019-08-08T09:54:00,28.1530,-82.8010,1014.54,11111222 
COMPS,ioos:station:USF.COMPS:FHP:1,2019-08-08T10:54:00,28.1530,-82.8010,1015.04,11111222 
COMPS,ioos:station:USF.COMPS:FHP:1,2019-08-08T11:54:00,28.1530,-82.8010,1015.52,11111222 
COMPS,ioos:station:USF.COMPS:FHP:1,2019-08-08T12:54:00,28.1530,-82.8010,1015.92,11111222 
COMPS,ioos:station:USF.COMPS:FHP:1,2019-08-08T13:54:00,28.1530,-82.8010,1016.22,11111222 
COMPS,ioos:station:USF.COMPS:FHP:1,2019-08-08T14:54:00,28.1530,-82.8010,1016.26,11111222 
COMPS,ioos:station:USF.COMPS:FHP:1,2019-08-08T15:54:00,28.1530,-82.8010,1016.45,11111222 
COMPS,ioos:station:USF.COMPS:FHP:1,2019-08-08T16:54:00,28.1530,-82.8010,1016.32,11111222 
COMPS,ioos:station:USF.COMPS:FHP:1,2019-08-08T17:54:00,28.1530,-82.8010,1016.37,11111222 
COMPS,ioos:station:USF.COMPS:FHP:1,2019-08-08T18:54:00,28.1530,-82.8010,1016.08,11111222 
COMPS,ioos:station:USF.COMPS:FHP:1,2019-08-08T19:54:00,28.1530,-82.8010,1015.29,11111222 
COMPS,ioos:station:USF.COMPS:FHP:1,2019-08-08T20:54:00,28.1530,-82.8010,1014.9,11111222 
COMPS,ioos:station:USF.COMPS:FHP:1,2019-08-08T21:54:00,28.1530,-82.8010,1015.49,11111222 
COMPS,ioos:station:USF.COMPS:FHP:1,2019-08-08T22:54:00,28.1530,-82.8010,1015.13,11111222 
COMPS,ioos:station:USF.COMPS:FHP:1,2019-08-08T23:54:00,28.1530,-82.8010,1015.09,11111222 
COMPS,ioos:station:USF.COMPS:FHP:1,2019-08-09T00:54:00,28.1530,-82.8010,1015.5,11111222 
COMPS,ioos:station:USF.COMPS:FHP:1,2019-08-09T01:54:00,28.1530,-82.8010,1015.89,11111222 
COMPS,ioos:station:USF.COMPS:FHP:1,2019-08-09T02:54:00,28.1530,-82.8010,1016.04,11111222 
COMPS,ioos:station:USF.COMPS:FHP:1,2019-08-09T03:54:00,28.1530,-82.8010,1015.93,11111222 
COMPS,ioos:station:USF.COMPS:FHP:1,2019-08-09T04:54:00,28.1530,-82.8010,1015.77,11111222 
COMPS,ioos:station:USF.COMPS:FHP:1,2019-08-09T05:54:00,28.1530,-82.8010,1015.36,11111222 
COMPS,ioos:station:USF.COMPS:FHP:1,2019-08-09T06:54:00,28.1530,-82.8010,1014.38,11111222 
COMPS,ioos:station:USF.COMPS:FHP:1,2019-08-09T07:54:00,28.1530,-82.8010,1013.89,11111222 
COMPS,ioos:station:USF.COMPS:FHP:1,2019-08-09T08:54:00,28.1530,-82.8010,1013.46,11111222 
COMPS,ioos:station:USF.COMPS:FHP:1,2019-08-09T09:54:00,28.1530,-82.8010,1013.82,11111222 
COMPS,ioos:station:USF.COMPS:FHP:1,2019-08-09T10:54:00,28.1530,-82.8010,1014.62,11111222 
COMPS,ioos:station:USF.COMPS:FHP:1,2019-08-09T11:54:00,28.1530,-82.8010,1014.97,11111222 
COMPS,ioos:station:USF.COMPS:FHP:1,2019-08-09T12:54:00,28.1530,-82.8010,1015.46,11111222 
COMPS,ioos:station:USF.COMPS:FHP:1,2019-08-09T13:54:00,28.1530,-82.8010,1015.84,11111222 
COMPS,ioos:station:USF.COMPS:FHP:1,2019-08-09T14:54:00,28.1530,-82.8010,1016.14,11111222 
COMPS,ioos:station:USF.COMPS:FHP:1,2019-08-09T15:54:00,28.1530,-82.8010,1016.2,11111222 
COMPS,ioos:station:USF.COMPS:FHP:1,2019-08-09T16:54:00,28.1530,-82.8010,1015.94,11111222 
COMPS,ioos:station:USF.COMPS:FHP:1,2019-08-09T17:54:00,28.1530,-82.8010,1015.6,11111222 
COMPS,ioos:station:USF.COMPS:FHP:1,2019-08-09T18:54:00,28.1530,-82.8010,1015.3,11111222 
COMPS,ioos:station:USF.COMPS:FHP:1,2019-08-09T19:54:00,28.1530,-82.8010,1014.68,11111222 
COMPS,ioos:station:USF.COMPS:FHP:1,2019-08-09T20:54:00,28.1530,-82.8010,1014.26,11111222 
COMPS,ioos:station:USF.COMPS:FHP:1,2019-08-09T21:54:00,28.1530,-82.8010,1014.45,11111222 
COMPS,ioos:station:USF.COMPS:FHP:1,2019-08-09T22:54:00,28.1530,-82.8010,1014.29,11111222 
COMPS,ioos:station:USF.COMPS:FHP:1,2019-08-09T23:54:00,28.1530,-82.8010,1014.96,11111222 
COMPS,ioos:station:USF.COMPS:FHP:1,2019-08-10T00:54:00,28.1530,-82.8010,1014.96,11111222 
COMPS,ioos:station:USF.COMPS:FHP:1,2019-08-10T01:54:00,28.1530,-82.8010,1015.42,11111222 
COMPS,ioos:station:USF.COMPS:FHP:1,2019-08-10T02:54:00,28.1530,-82.8010,1015.56,11111222 
COMPS,ioos:station:USF.COMPS:FHP:1,2019-08-10T03:54:00,28.1530,-82.8010,1015.53,11111222 
COMPS,ioos:station:USF.COMPS:FHP:1,2019-08-10T04:54:00,28.1530,-82.8010,1015.24,11111222 
COMPS,ioos:station:USF.COMPS:FHP:1,2019-08-10T05:54:00,28.1530,-82.8010,1014.77,11111222 
COMPS,ioos:station:USF.COMPS:FHP:1,2019-08-10T06:54:00,28.1530,-82.8010,1013.94,11111222 
COMPS,ioos:station:USF.COMPS:FHP:1,2019-08-10T07:54:00,28.1530,-82.8010,1013.8,11111222 
COMPS,ioos:station:USF.COMPS:FHP:1,2019-08-10T08:54:00,28.1530,-82.8010,1013.66,11111222 
COMPS,ioos:station:USF.COMPS:FHP:1,2019-08-10T09:54:00,28.1530,-82.8010,1013.8,11111222 
COMPS,ioos:station:USF.COMPS:FHP:1,2019-08-10T10:54:00,28.1530,-82.8010,1014.3,11111222 
COMPS,ioos:station:USF.COMPS:FHP:1,2019-08-10T11:54:00,28.1530,-82.8010,1015.06,11111222 
COMPS,ioos:station:USF.COMPS:FHP:1,2019-08-10T12:54:00,28.1530,-82.8010,1015.7,11111222 
COMPS,ioos:station:USF.COMPS:FHP:1,2019-08-10T13:54:00,28.1530,-82.8010,1015.73,11111222 
COMPS,ioos:station:USF.COMPS:FHP:1,2019-08-10T14:54:00,28.1530,-82.8010,1016.02,11111222 
COMPS,ioos:station:USF.COMPS:FHP:1,2019-08-10T15:54:00,28.1530,-82.8010,1016.3,11111222 
COMPS,ioos:station:USF.COMPS:FHP:1,2019-08-10T16:54:00,28.1530,-82.8010,1015.6,11111222 
COMPS,ioos:station:USF.COMPS:FHP:1,2019-08-10T17:54:00,28.1530,-82.8010,1015.42,11111222 
COMPS,ioos:station:USF.COMPS:FHP:1,2019-08-10T18:54:00,28.1530,-82.8010,1014.82,11111222 
COMPS,ioos:station:USF.COMPS:FHP:1,2019-08-10T19:54:00,28.1530,-82.8010,1014.37,11111222 
COMPS,ioos:station:USF.COMPS:FHP:1,2019-08-10T20:54:00,28.1530,-82.8010,1013.72,11111222 
COMPS,ioos:station:USF.COMPS:FHP:1,2019-08-10T21:54:00,28.1530,-82.8010,1013.45,11111222 
COMPS,ioos:station:USF.COMPS:FHP:1,2019-08-10T22:54:00,28.1530,-82.8010,1013.42,11111222 
COMPS,ioos:station:USF.COMPS:FHP:1,2019-08-10T23:54:00,28.1530,-82.8010,1013.69,11111222 
COMPS,ioos:station:USF.COMPS:FHP:1,2019-08-11T00:54:00,28.1530,-82.8010,1014.29,11111222 
COMPS,ioos:station:USF.COMPS:FHP:1,2019-08-11T01:54:00,28.1530,-82.8010,1014.93,11111222 
COMPS,ioos:station:USF.COMPS:FHP:1,2019-08-11T02:54:00,28.1530,-82.8010,1014.82,11111222 
COMPS,ioos:station:USF.COMPS:FHP:1,2019-08-11T03:54:00,28.1530,-82.8010,1015.49,11111222 
COMPS,ioos:station:USF.COMPS:FHP:1,2019-08-11T04:54:00,28.1530,-82.8010,1015.16,11111222 
COMPS,ioos:station:USF.COMPS:FHP:1,2019-08-11T05:54:00,28.1530,-82.8010,1015.01,11111222 
COMPS,ioos:station:USF.COMPS:FHP:1,2019-08-11T06:54:00,28.1530,-82.8010,1014.02,11111222 
COMPS,ioos:station:USF.COMPS:FHP:1,2019-08-11T07:54:00,28.1530,-82.8010,1013.61,11111222 
COMPS,ioos:station:USF.COMPS:FHP:1,2019-08-11T08:54:00,28.1530,-82.8010,1013.38,11111222 
COMPS,ioos:station:USF.COMPS:FHP:1,2019-08-11T09:54:00,28.1530,-82.8010,1013.56,11111222 
COMPS,ioos:station:USF.COMPS:FHP:1,2019-08-11T10:54:00,28.1530,-82.8010,1014.33,11111222 
COMPS,ioos:station:USF.COMPS:FHP:1,2019-08-11T11:54:00,28.1530,-82.8010,1015.29,11111222 
COMPS,ioos:station:USF.COMPS:FHP:1,2019-08-11T12:54:00,28.1530,-82.8010,1015.52,11111222 
COMPS,ioos:station:USF.COMPS:FHP:1,2019-08-11T13:54:00,28.1530,-82.8010,1015.82,11111222 
COMPS,ioos:station:USF.COMPS:FHP:1,2019-08-11T14:54:00,28.1530,-82.8010,1016.21,11111222 
COMPS,ioos:station:USF.COMPS:FHP:1,2019-08-11T15:54:00,28.1530,-82.8010,1016.33,11111222 
COMPS,ioos:station:USF.COMPS:FHP:1,2019-08-11T16:54:00,28.1530,-82.8010,1016.0,11111222 
COMPS,ioos:station:USF.COMPS:FHP:1,2019-08-11T17:54:00,28.1530,-82.8010,1015.33,11111222 
COMPS,ioos:station:USF.COMPS:FHP:1,2019-08-11T18:54:00,28.1530,-82.8010,1014.44,11111222 
COMPS,ioos:station:USF.COMPS:FHP:1,2019-08-11T19:54:00,28.1530,-82.8010,1013.97,11111222 
COMPS,ioos:station:USF.COMPS:FHP:1,2019-08-11T20:54:00,28.1530,-82.8010,1013.4,11111222 
COMPS,ioos:station:USF.COMPS:FHP:1,2019-08-11T21:54:00,28.1530,-82.8010,1013.6,11111222 
COMPS,ioos:station:USF.COMPS:FHP:1,2019-08-11T22:54:00,28.1530,-82.8010,1013.81,11111222 
COMPS,ioos:station:USF.COMPS:FHP:1,2019-08-12T05:54:00,28.1530,-82.8010,1013.81,11111222 
COMPS,ioos:station:USF.COMPS:FHP:1,2019-08-12T08:54:00,28.1530,-82.8010,1012.4,11111222 
COMPS,ioos:station:USF.COMPS:FHP:1,2019-08-12T11:54:00,28.1530,-82.8010,1013.81,11111222 
COMPS,ioos:station:USF.COMPS:FHP:1,2019-08-12T12:54:00,28.1530,-82.8010,1014.48,11111222 
COMPS,ioos:station:USF.COMPS:FHP:1,2019-08-12T13:54:00,28.1530,-82.8010,1014.9,11111222 